Volver al catálogo

STARLINK-6190

ActivoComunicacionesVLEO
NORAD 56774·PAYLOAD·🇺🇸 United States

Lanzado May 31, 2023 desde Vandenberg Space Force Base

Loading…

Próximos Pases (próximas 24 horas)

TLE

ActualizadoSource: CelesTrak SupGP

Época: Sep 15, 2026, 02:34 UTC

1 56774C 23078H   26258.10743056 -.00045702  00000+0 -38297-2 0  2586
2 56774  69.9997 246.9609 0003816 268.7412 231.0574 14.98355269    19

Sigue STARLINK-6190 en tiempo real con AllMySat

Download on the App Store